Back to catalog

SL-6 R/B(2)

AliveHEO
NORAD 20599·ROCKET BODY·🇷🇺 Russia

Launched Apr 28, 1990 from Plesetsk Cosmodrome

Loading…

Next Passes (next 24 hours)

TLE

FreshSource: Space-Track

Epoch: Sep 14, 2026, 13:59 UTC

1 20599U 90040D   26257.58299462 -.00000658  00000-0  00000-0 0  9995
2 20599  69.7347 124.6257 5669042  37.0987 351.3086  2.03489014270383

Track SL-6 R/B(2) in real time with AllMySat

Download on the App Store